THAICOM 5

Last updated on Jan. 19, 2020, 4:37 a.m. UTC

1 29163U 06020B   20018.59007684 -.00000126  00000-0  00000-0 0  9999
2 29163   0.0844 107.4213 0005525 195.3950 105.5630  1.00271801 50012
UTC
Height (km)
Latitude
Longitude
Inclination
Orbital Period
UTC large
Height (km)
Speed (km/s)
/
Latitude / Longitude
Inclination (degrees)
Orbital Period (minutes)
Azimuth
Elevation
Range (km)
Doppler Factor
iOS Compass Heading
iOS Angle

Next 30 passes for location: Hong Kong

Rise time Rise Azimuth (degrees) Set time Set Azimuth (degrees) Duration Max altitude (degrees)

No matching passes for this satellites